Location: River House Observatory
(37.8577°N, 76.3548°W)
Time: 20:27:20
(UTC-04:00)

NOSS 3-1 (C) - Visible Passes

Search period start: 30 April 2016 00:00
Search period end: 10 May 2016 00:00
Orbit: 856 x 1353 km, 63.4° (Epoch: 20 April)

Date Brightness Start Highest point End Pass type
(mag) Time Alt. Az. Time Alt. Az. Time Alt. Az.
30 Apr 5.0 21:57:02 10° NW 22:04:10 40° WSW 22:09:56 17° S visible
01 May 4.5 21:11:25 10° NW 21:19:02 62° WSW 21:26:45 12° SSE visible
01 May 6.4 23:08:04 10° W 23:08:51 10° WSW 23:09:38 10° WSW visible
02 May 4.2 20:26:03 10° NNW 20:33:46 88° ENE 20:42:07 10° SSE visible
02 May 6.0 22:18:50 10° WNW 22:24:01 19° WSW 22:29:24 10° SSW visible
03 May 5.5 21:32:25 10° NW 21:39:04 31° WSW 21:46:07 10° S visible
04 May 4.9 20:46:36 10° NW 20:54:00 49° WSW 21:01:55 10° S visible
05 May 6.3 21:55:07 10° WNW 21:58:50 14° WSW 22:02:38 10° SW visible
06 May 6.0 21:07:58 10° WNW 21:13:57 24° WSW 21:20:13 10° SSW visible
07 May 5.4 20:21:52 10° NW 20:28:56 38° WSW 20:36:27 10° S visible
09 May 6.4 20:43:48 10° WNW 20:48:46 18° WSW 20:53:57 10° SW visible
